Retour au catalogue

DELTA 1 DEB

ActifPO
NORAD 42655·DEBRIS·🇺🇸 United States

Lancé Jun 12, 1975 depuis Vandenberg Space Force Base

Loading…

Prochains Passages (prochaines 24 heures)

TLE

VieillissantSource: Space-Track

Époque: Sep 4, 2026, 17:10 UTC

1 42655U 75052MQ  26247.71596662 -.00000544  00000-0 -80275-3 0  9994
2 42655  99.6059 217.1386 0568087 286.3280  67.6102 12.98686166606033

Suivez DELTA 1 DEB en temps réel avec AllMySat

Download on the App Store